User: anonymous   Login
Location: Boca de Tacagua
(10.5333°N, 66.9833°W)
Time: 07:39:45
(UTC+00:00)
Language:

ITUPSAT 1 - Orbit

View from above orbital plane
View from above orbital plane
View from above satellite
View from above satellite

Ground track
Ground track

The orbit data is extracted from the following two-line orbital elements,

1 35935U 09051E   23089.88286714  .00001716  00000-0  39654-3 0  9991
2 35935  98.5363 319.7237 0006817 264.8290  95.2129 14.56513400717569
Epoch (UTC): 30 March 2023 21:11:19
Eccentricity: 0.0006817
inclination: 98.5363°
perigee height: 699 km
apogee height: 709 km
right ascension of ascending node: 319.7237°
argument of perigee: 264.8290°
revolutions per day: 14.56513400
mean anomaly at epoch: 95.2129°
orbit number at epoch: 71756

The dashed part of the orbit path shows where the satellite is in the earth's shadow,  

DLR